255P/Levy (2006)

Japanese version
Home page
Updated on January 22, 2012

---------------------------------------------------------------------

* Profile

Designation 255P/2006 T1
Discovery Date October 2, 2006
Magnitude 10.5 mag
Discoverer David H. Levy (Tucson, AZ)

* Pictures

* Orbital Elements

Epoch 2006 Sept. 22.0 TT = JDT 2454000.5
T 2006 Oct. 7.43146 TT                                  MPC
q   0.9895425            (2000.0)            P               Q
n   0.18774615     Peri.  179.45434     -0.16146858     -0.93700373
a   3.0205685      Node   279.81019     +0.90424771     -0.01474480
e   0.6723986      Incl.   18.32204     +0.39530238     -0.34900803
P   5.25
From 262 observations 2006 Oct. 2-2011 Dec. 17, mean residual 0".63.

* Finding Charts

* Magnitudes Graph

        H = 20  G = 0.15                    [  ,-6]  (              - 2006 Oct. 1)
        m1 = 9 + 5 log d + 70 log r(t + 6)  [-6,  ]  (2006 Oct. 1 -              )

---------------------------------------------------------------------

The orbital elements are published on M.P.E.C. 2011-Y07.
The charts are made with StellaNavigator Ver.2.0 for Windows (AstroArts / ASCII).
The magnitudes graphs are made with Comet for Windows.

---------------------------------------------------------------------

Copyright(C) Seiichi Yoshida (comet@aerith.net). All rights reserved.